EHI
88 89 88 84 83 85 85 80 73 68 64 60 52 46 39 28 22 24 26 24 20 14 9 9 13 12 7 4 4 5 5 4 4 2 0 1 3 5 6 6 5 5 7
89 89 88 85 83 84 84 81 76 71 66 61 54 47 40 31 23 24 28 27 21 16 11 10 10 10 7 5 7 9 7 5 5 4 1 1 2 3 5 6 6 6 7
87 86 85 84 82 82 82 81 78 74 69 63 55 49 44 34 26 26 30 29 23 19 16 14 10 7 5 5 8 10 8 6 5 4 2 0 0 2 4 5 7 9 10
82 82 81 80 78 77 79 81 80 76 70 62 55 50 46 36 28 27 29 28 24 19 18 17 15 10 6 5 6 8 9 8 5 3 1 0 0 2 3 3 7 11 13
77 79 79 77 74 73 74 78 79 75 69 62 54 48 43 35 28 24 25 25 20 16 15 16 18 16 11 8 7 9 11 9 5 3 1 1 1 1 2 2 4 7 9
74 76 78 76 73 71 71 73 74 72 67 60 52 46 39 33 27 22 21 20 15 11 10 12 16 17 13 10 11 13 12 8 5 3 2 2 3 2 1 0 1 2 3
71 75 78 77 73 69 68 69 68 67 63 55 49 43 38 32 27 22 19 16 12 10 10 11 14 15 12 10 12 14 12 9 7 6 5 5 4 2 1 0 0 0 0
71 75 78 76 72 69 67 67 66 64 59 52 46 41 37 32 26 22 18 15 12 12 13 15 15 14 12 9 11 13 12 12 11 9 8 7 4 2 1 1 1 0 0
68 71 75 75 72 69 68 67 66 62 56 50 44 39 36 32 28 24 20 17 15 14 16 19 16 13 12 10 10 10 9 11 13 11 10 9 6 3 3 3 2 1 1
62 68 72 73 71 70 71 70 67 63 58 51 43 37 35 33 30 26 22 19 17 15 16 18 16 13 12 12 11 8 7 9 11 12 12 11 9 8 7 6 5 4 2
64 70 74 73 71 71 74 75 70 65 60 52 44 39 36 33 31 28 24 21 18 15 14 14 15 14 13 13 12 8 7 8 10 11 13 15 14 13 12 10 7 5 4
68 73 77 76 72 70 74 75 70 64 58 52 47 42 37 34 32 29 26 24 21 19 15 13 13 12 12 12 11 9 9 9 10 10 13 16 16 14 13 10 7 5 5
69 75 79 77 73 70 70 69 65 60 55 50 47 44 39 36 34 30 27 25 25 23 19 15 13 12 11 11 10 9 10 10 9 9 11 13 13 12 10 8 6 5 4
73 77 80 78 75 71 69 65 62 57 52 48 47 45 40 37 34 30 26 25 24 22 19 16 14 13 11 9 8 7 8 8 8 8 7 7 8 7 5 5 5 5 4
79 82 83 81 77 72 68 65 63 58 52 48 47 45 40 38 36 32 27 25 23 21 19 17 15 12 8 5 4 4 5 5 6 6 4 4 4 4 3 3 4 4 4
83 85 86 85 80 73 70 69 65 59 53 48 47 44 40 37 34 30 27 25 25 23 20 17 15 10 5 2 1 2 3 4 5 5 5 4 3 2 3 3 3 3 2
84 86 88 86 80 74 72 72 67 59 53 48 46 44 41 36 32 28 25 25 26 24 20 17 15 10 4 1 0 0 1 3 5 6 6 5 2 1 2 2 2 1 1
85 87 86 82 76 73 71 71 66 58 52 47 45 42 38 34 30 27 24 24 25 23 18 15 13 9 5 1 0 0 0 1 2 4 5 4 1 0 1 1 1 1 1
85 84 81 76 72 71 69 66 62 56 50 46 42 39 35 31 30 28 24 21 20 18 14 11 9 7 4 2 0 0 0 0 0 1 2 2 1 0 0 0 0 0 1
81 80 76 73 71 70 65 61 57 53 47 43 39 36 34 30 28 26 22 17 13 11 8 6 6 5 4 2 0 0 0 0 0 0 0 0 0 0 0 0 1 0 0
74 71 68 67 66 64 60 56 53 49 43 39 37 36 34 28 23 21 18 13 9 7 6 5 5 4 3 1 0 0 0 0 0 0 1 1 0 0 0 0 0 0 0
64 60 58 58 57 55 53 51 48 43 38 34 33 32 30 23 17 14 12 9 7 6 5 4 4 4 3 1 0 0 0 0 0 0 1 1 0 0 0 0 0 0 0
56 54 52 51 50 48 46 44 40 36 32 27 25 23 21 15 9 7 7 5 4 4 4 4 4 3 3 2 1 1 0 0 0 0 1 1 0 0 0 0 0 0 0
51 51 49 46 43 39 36 34 33 29 25 20 17 15 12 8 3 2 2 1 1 2 2 2 3 3 3 2 2 2 1 0 0 0 0 0 0 0 0 0 0 0 0
46 45 42 38 34 30 28 27 26 23 19 15 13 10 7 3 1 0 0 0 0 1 1 1 1 2 2 1 1 2 1 0 0 0 0 0 0 0 0 0 0 0 0
41 39 35 31 27 26 25 24 22 19 17 14 11 8 5 2 0 0 0 0 0 0 0 0 0 1 1 0 0 1 1 0 0 0 0 0 0 0 0 0 0 0 0
Wind_Speed
12 12 11 11 10 8 8 7 7 6 5 4 4 4 4 3 3 4 5 4 4 3 2 1 2 2 2 2 2 1 2 2 2 1 1 2 3 4 3 4 3 4 4
12 12 11 10 10 9 9 8 7 7 7 4 4 3 3 3 3 3 4 5 4 3 4 3 3 3 2 2 1 1 1 2 2 2 1 1 2 2 5 4 4 4 3
14 13 12 11 11 10 9 7 7 7 6 5 3 2 2 2 2 3 3 4 4 4 3 3 3 2 3 3 3 3 3 3 2 2 2 1 2 2 2 3 3 3 3
14 14 12 11 10 9 9 6 6 6 5 5 4 4 4 3 3 2 2 3 4 4 4 3 3 3 2 2 4 4 3 3 2 2 2 2 1 1 1 2 2 4 4
14 14 12 10 9 9 9 7 6 5 4 4 4 4 4 3 2 2 3 3 3 4 4 4 3 3 3 3 3 2 2 2 2 2 1 1 2 3 2 2 2 2 2
13 13 12 11 9 9 8 8 7 5 4 4 4 4 4 3 2 3 3 3 3 3 4 4 3 3 3 2 2 2 3 2 2 1 1 1 2 2 2 2 2 3 3
12 12 12 11 10 9 9 8 7 5 5 4 3 3 3 3 3 3 4 4 3 3 4 4 3 2 2 3 2 2 3 3 3 2 2 2 2 2 2 2 2 3 2
12 13 12 11 10 10 9 8 8 6 5 5 3 3 3 2 2 3 3 3 3 3 3 3 3 3 3 3 2 2 3 3 3 4 3 2 2 2 1 1 2 2 2
12 13 13 12 10 10 8 8 7 6 5 4 4 3 2 2 2 1 2 2 2 2 4 4 3 3 2 2 2 2 2 2 3 2 2 2 2 2 2 2 1 2 3
12 13 12 12 11 10 9 8 7 6 5 4 3 3 3 2 1 1 1 0 1 0 1 1 2 2 2 2 2 2 2 2 2 2 1 1 2 2 2 2 2 1 2
12 12 11 11 11 10 10 9 8 6 5 4 3 3 3 2 2 1 2 1 1 1 1 0 1 2 2 2 2 3 2 2 2 2 2 2 2 1 2 2 2 2 2
9 12 13 11 10 10 10 9 8 7 6 5 4 3 2 3 2 2 2 2 2 1 1 1 0 1 1 1 2 2 2 2 2 2 2 2 2 1 2 2 2 2 2
9 11 11 11 9 9 8 9 8 7 7 6 5 4 3 3 3 3 3 2 2 2 1 1 0 1 1 0 0 1 0 0 0 0 1 1 1 1 1 2 2 2 2
9 10 10 10 9 8 8 8 7 7 7 6 5 5 4 3 3 3 3 3 2 2 2 2 1 2 1 1 1 1 1 1 1 1 2 2 2 2 2 2 2 2 2
9 10 10 9 9 8 7 7 7 6 6 6 5 4 4 4 4 4 3 3 3 3 3 2 3 3 2 3 2 1 1 1 2 2 3 4 5 6 4 3 3 3 2
9 9 10 10 9 9 8 7 7 7 6 5 5 5 5 4 4 4 4 4 4 3 4 4 4 4 4 6 6 4 3 3 3 3 3 4 5 6 7 9 9 7 4
8 8 8 9 8 7 7 8 8 7 6 5 5 6 5 5 4 4 4 4 4 3 3 4 5 5 6 8 7 6 4 5 4 4 3 3 4 5 3 6 7 8 9
7 7 7 8 9 8 7 7 8 7 6 6 5 6 5 5 5 4 4 4 4 4 4 5 5 5 7 8 7 6 5 5 6 5 4 4 4 4 4 4 5 6 6
7 7 7 7 7 8 8 8 8 7 7 6 5 5 5 5 5 5 5 4 4 5 5 5 5 6 6 8 7 5 4 5 6 6 7 6 5 7 6 4 5 4 4
8 8 8 8 7 7 8 8 8 7 6 6 5 5 5 6 6 6 5 4 5 5 5 6 6 6 7 9 10 6 3 4 5 5 6 9 7 8 6 4 4 4 3
10 9 8 8 6 6 7 8 8 7 6 6 6 6 6 6 6 6 5 5 5 5 5 6 6 6 7 9 11 9 4 4 4 4 4 5 8 8 8 6 4 3 2
9 9 8 8 7 6 7 8 8 7 7 7 7 7 6 6 6 5 5 5 5 5 5 5 5 5 6 8 9 10 8 6 5 4 4 4 7 8 7 5 5 5 4
8 7 8 8 7 7 7 8 7 7 8 8 7 7 8 7 5 5 4 4 3 3 4 4 5 5 5 6 8 8 8 8 4 4 5 4 4 5 3 4 4 4 2
7 6 8 8 7 7 7 7 7 8 8 7 7 7 7 7 7 5 5 5 4 3 3 4 4 5 4 4 3 3 4 4 4 3 4 4 4 3 3 3 3 2 3
6 6 7 7 7 7 7 7 7 7 8 7 7 7 8 8 8 8 7 7 7 6 5 4 4 4 5 4 5 4 3 3 3 2 2 2 2 3 3 3 4 4 4
6 6 7 7 7 7 7 6 6 7 7 6 6 6 6 6 7 7 8 14 11 12 13 11 7 6 6 5 8 9 8 7 5 4 3 3 4 4 4 4 4 4 4
Wind_Direction
160 153 154 156 157 158 162 171 179 172 173 178 186 194 194 192 195 191 179 191 210 206 215 232 171 224 211 183 190 165 206 230 214 245 263 234 224 210 203 215 210 201 192
156 154 157 161 164 164 167 175 182 178 184 185 184 190 190 202 197 199 178 191 198 206 209 207 214 206 197 196 199 190 238 247 210 199 226 283 282 252 218 201 210 208 189
159 160 167 170 169 167 174 178 177 177 186 181 181 185 174 213 202 194 180 198 200 213 233 205 227 217 202 194 205 201 214 242 251 217 177 186 240 263 265 223 211 194 189
159 163 169 169 169 167 168 166 166 171 178 178 188 190 194 205 204 195 183 194 203 213 219 222 221 231 235 197 213 206 203 227 250 253 222 213 185 222 281 286 246 207 200
158 162 164 161 161 160 160 159 157 161 168 179 189 202 212 212 203 189 183 197 206 215 225 219 213 220 231 225 221 184 196 220 240 256 254 252 236 230 222 249 256 246 212
153 153 152 150 153 156 157 155 153 159 169 185 190 202 219 222 214 197 189 203 204 213 218 215 207 217 223 231 222 200 208 222 245 268 281 266 252 253 247 251 254 247 232
147 145 147 152 156 160 156 153 152 161 170 179 190 195 215 225 218 210 201 209 205 205 206 206 197 211 219 224 218 199 224 225 226 233 258 270 262 258 247 248 261 266 259
145 147 151 153 158 159 155 152 153 161 169 172 181 184 202 223 219 212 213 216 218 210 192 188 196 206 214 225 207 210 219 218 224 238 241 267 276 285 279 252 263 282 286
146 149 152 154 156 155 151 148 148 154 163 166 169 174 187 210 216 199 218 222 217 212 183 186 190 204 209 222 207 219 231 218 217 231 232 250 273 276 276 279 270 257 279
149 148 149 152 150 150 144 141 143 148 151 153 163 160 164 155 144 162 138 174 262 274 141 167 188 208 214 213 214 223 228 218 227 225 230 243 270 277 283 286 288 265 247
148 144 142 145 145 145 145 142 141 144 146 145 146 126 136 134 129 99 88 90 68 46 63 136 224 222 214 214 220 229 213 215 231 241 231 242 265 297 312 309 300 289 269
141 141 142 143 146 148 147 146 147 148 148 143 135 121 118 115 113 102 96 93 91 77 61 83 358 282 245 237 227 236 224 215 224 241 248 243 253 258 300 310 305 301 300
140 136 139 142 147 145 142 142 146 148 146 142 136 127 117 107 99 91 89 90 88 83 54 47 26 300 313 12 301 237 218 213 233 294 303 309 308 320 315 310 308 304 300
140 140 138 138 139 137 136 140 144 144 140 135 132 127 122 112 104 94 84 78 77 80 68 44 22 15 29 30 38 81 97 68 41 36 40 32 24 2 332 324 323 315 328
147 144 144 139 139 137 139 139 136 130 127 129 126 124 121 112 105 100 92 83 72 73 66 51 37 31 32 26 18 55 97 74 62 56 61 64 62 55 43 28 12 2 7
152 146 145 144 144 144 144 137 132 127 126 126 121 117 114 109 105 100 92 86 76 65 60 56 52 48 37 34 42 51 54 58 57 56 60 75 68 68 74 68 57 46 36
149 147 143 141 138 139 134 136 131 131 131 125 120 117 115 111 105 103 96 90 83 73 65 63 62 61 44 40 47 53 63 59 55 53 45 48 51 51 65 76 65 53 49
138 134 138 140 143 140 137 133 134 133 130 123 119 117 123 121 111 102 92 84 77 73 65 62 65 64 44 37 46 55 71 65 57 49 48 60 48 43 48 75 79 67 49
128 126 127 130 132 138 137 132 131 128 123 119 115 114 115 111 106 98 88 80 79 75 70 64 61 61 45 31 38 49 86 79 67 55 47 48 54 39 47 78 88 85 81
116 116 118 116 115 125 130 127 123 117 113 111 109 105 102 101 100 96 91 86 84 82 78 70 62 61 53 35 34 35 79 87 85 70 58 54 50 33 35 59 76 74 61
113 113 112 111 106 107 115 115 112 110 109 108 103 97 95 99 99 98 95 96 92 90 87 82 73 65 58 50 44 45 58 69 78 75 64 51 48 44 43 54 57 51 36
109 113 110 105 102 106 112 112 111 108 106 102 100 97 94 92 95 96 94 96 100 101 95 89 83 72 59 51 49 52 54 56 66 71 73 67 60 55 45 49 37 34 38
108 112 112 108 102 102 107 111 110 111 110 104 99 94 89 82 83 87 93 95 95 96 95 92 85 80 74 63 57 58 58 57 67 74 79 71 64 59 55 48 39 42 51
112 113 115 112 103 100 101 106 112 113 114 112 108 104 98 85 66 55 56 56 45 61 82 81 83 82 67 50 48 70 77 83 88 92 96 86 65 55 41 43 43 50 44
107 110 109 109 108 106 106 108 113 116 117 116 113 107 96 90 76 63 49 57 51 46 57 63 70 78 76 36 32 49 50 50 61 65 82 76 71 69 66 61 52 53 48
104 107 109 112 114 112 109 109 115 122 125 125 123 116 114 110 106 98 79 56 64 63 62 62 74 76 76 69 59 55 51 48 49 56 56 61 59 61 64 65 66 60 48